Regional Weather Roundup
Issued by NWS Huntsville, AL

Home | Current Version | Previous Version | Text Only | Print | Product List | Glossary On
Versions: 1 2 3 4 5 6 7 8 9 10 11 12 13 14 15 16 17 18 19 20 21 22 23 24 25 26 27 28 29 30 31 32 33 34 35 36 37 38 39 40 41 42 43 44 45 46 47 48 49 50
000
ASUS44 KHUN 292310
RWRHUN

WEATHER ROUNDUP FOR THE TENNESSEE VALLEY
NATIONAL WEATHER SERVICE HUNTSVILLE AL
600 PM CDT SAT AUG 29 2015

ALZ001>004-300000-
NORTHWEST ALABAMA

CITY           SKY/WX    TMP DP  RH WIND       PRES   REMARKS
COURTLAND HCN    N/A     73 N/A N/A SE7         N/A
BANKHEAD NF      N/A     69  69 100 CALM        N/A
RUSSELLVILLE     N/A     73 N/A N/A MISG        N/A
SHOALS AIRPORT CLOUDY    77  68  73 SE10      30.08S
SHOALS TVA RES   N/A     77 N/A N/A MISG        N/A
$$

ALZ005>007-016-300000-
NORTH CENTRAL ALABAMA

CITY           SKY/WX    TMP DP  RH WIND       PRES   REMARKS
CULLMAN AG STN   N/A     73 N/A N/A CALM        N/A
DECATUR AP     CLOUDY    71  70  96 SE3       30.10S
HUNTSVILLE AP  CLOUDY    73  69  87 SE5       30.10R
HUN NWS/UAH      N/A     71  68  91 E2          N/A
MERIDIANVILLE  LGT RAIN  70  64  83 SE5       30.11S
REDSTONE ARSN  CLOUDY    71  69  94 E2        30.10R
VINEMONT AP    FAIR      70  68  94 CALM      30.13R
$$

ALZ008>010-300000-
NORTHEAST ALABAMA

CITY           SKY/WX    TMP DP  RH WIND       PRES   REMARKS
ALBERTVILLE    CLOUDY    72  72 100 SE8       30.12S
FORT PAYNE     CLOUDY    73  68  83 SW7       30.12S
SCOTTSBORO AP  LGT RAIN  72  72 100 N6        30.13S
SCOTTSBORO HCN   N/A     72 N/A N/A MISG        N/A
VALLEY HEAD      N/A     70 N/A N/A MISG        N/A
$$

TNZ076-096-097-300000-
SOUTHEASTERN MIDDLE TENNESSEE

CITY           SKY/WX    TMP DP  RH WIND       PRES   REMARKS
TULLAHOMA      MOSUNNY   70  68  94 SE7       30.14S
WINCHESTER     PTSUNNY   72  68  88 E8        30.14S
$$

...SURROUNDING SITES...

CITY           SKY/WX    TMP DP  RH WIND       PRES   REMARKS
ATLANTA        CLOUDY    78  64  61 SE6       30.12F
ANNISTON       CLOUDY    73  68  84 E5        30.12S
BIRMINGHAM     HVY RAIN  70  70 100 NE7       30.14R FOG
CHATTANOOGA    CLOUDY    82  62  50 SE6       30.11R
DALTON         CLOUDY    79  68  69 SE3       30.12S
GADSDEN        CLOUDY    72  64  78 CALM      30.11S
GOLDEN TRNGL   PTSUNNY   82  72  69 NE9       30.01S
HALEYVILLE     FAIR      70  70 100 CALM      30.12F
JACKSON TN     SUNNY     87  68  52 VRB3      30.01R HX  90
MEMPHIS        PTSUNNY   88  60  38 SW5       29.99S
NASHVILLE      CLOUDY    78  65  63 S8        30.08R
OXFORD MS      FAIR      84  68  58 SE5       30.03S
ROME           CLOUDY    79  69  71 S6        30.10S
SAVANNAH       SUNNY     84  32  15 SE6       30.03S
TUPELO         MOSUNNY   86  69  56 S7        30.02R HX  90
TUSCALOOSA     TSTM      75  69  81 E3        30.07S
$$

...GULF COAST WEATHER...

CITY           SKY/WX    TMP DP  RH WIND       PRES   REMARKS
GULFPORT       SUNNY     85  67  54 S8        29.99S
PASCAGOULA     MOSUNNY   83  72  69 S8        29.99F
MOBILE         PTSUNNY   85  72  65 SE13      30.02S HX  91
GULF SHORES    CLEAR     83  71  66 SE6       30.00F
PENSACOLA      SUNNY     83  68  60 S9        30.00F
DESTIN         MOSUNNY   83  73  72 SE6       30.02S
PANAMA CITY    HAZE      79  72  78 NW12      30.02R VSB 3/4
APPALACHICOLA  CLOUDY    78  73  84 E3        30.02S
$$




USA.gov is the U.S. government's official web portal to all federal, state and local government web resources and services.